Location: Bathurst
(33.4193°S, 149.5775°E)
Time: 00:56:14
(UTC+10:00)

XW-2F - Visible Passes

Search period start: 21 April 2021 00:00
Search period end: 01 May 2021 00:00
Orbit: 498 x 520 km, 97.5° (Epoch: 20 April)

Date Brightness Start Highest point End Pass type
(mag) Time Alt. Az. Time Alt. Az. Time Alt. Az.
21 Apr ? 05:46:43 10° N 05:50:24 49° W 05:54:09 10° SSW visible
21 Apr ? 18:55:52 10° SSW 18:58:39 20° WSW 19:01:25 10° WNW visible
22 Apr ? 05:29:48 10° N 05:33:37 86° W 05:37:28 10° SSW visible
22 Apr ? 18:38:35 10° S 18:41:58 32° WSW 18:45:18 10° NW visible
23 Apr ? 05:13:08 10° NNE 05:16:51 54° ESE 05:20:36 10° S visible
23 Apr ? 18:21:33 10° S 18:25:15 57° WSW 18:28:52 10° NNW visible
24 Apr ? 04:56:43 10° NE 05:00:08 31° ESE 05:03:33 10° S visible
24 Apr ? 18:04:42 10° SSE 18:08:28 81° ENE 18:12:09 10° N visible
25 Apr ? 04:40:38 10° ENE 04:43:26 20° ESE 04:46:14 10° SSE visible
25 Apr ? 17:48:02 10° SSE 17:51:39 45° E 17:55:11 10° N visible
26 Apr ? 04:25:12 10° E 04:26:46 12° ESE 04:28:22 10° SE visible
26 Apr ? 05:56:48 10° NNW 06:00:19 35° W 06:03:51 10° SSW visible
26 Apr ? 19:06:13 10° SSW 19:08:26 15° WSW 19:10:38 10° WNW visible
27 Apr ? 05:39:43 10° N 05:43:29 62° W 05:47:16 10° SSW visible
27 Apr ? 18:48:40 10° SSW 18:51:44 24° WSW 18:54:46 10° NW visible
28 Apr ? 05:22:53 10° NNE 05:26:40 75° ESE 05:30:29 10° S visible
28 Apr ? 18:31:28 10° S 18:35:01 40° WSW 18:38:29 10° NW visible
29 Apr ? 05:06:18 10° NE 05:09:53 42° ESE 05:13:32 10° S visible
29 Apr ? 18:14:30 10° S 18:18:14 73° WSW 18:21:54 10° NNW visible
30 Apr ? 04:49:59 10° NE 04:53:10 26° ESE 04:56:20 10° SSE visible
30 Apr ? 17:57:42 10° SSE 18:01:25 63° E 18:05:03 10° N visible
